WetterOnline ( https://www.wetteronline.de )

Wetter aktuell Arhus

Aktuelles Wetter: Aarhus Syd (55m)

6-stündlich | Neueste Meldungen
Ortszeit Temperatur Wetter
Do, 04.06. 8:00 13.2° C wolkenlos
Do, 04.06. 2:00 11.0° C fast wolkenlos
Mi, 03.06. 20:00 15.5° C wolkenlos
Mi, 03.06. 14:00 20.2° C wolkenlos
Mi, 03.06. 8:00 17.5° C wolkenlos
Mi, 03.06. 2:00 13.1° C wolkenlos
Di, 02.06. 20:00 21.9° C bewölkt
Di, 02.06. 14:00 23.9° C fast wolkenlos
Ortszeit Temperatur Wetter
Do, 04.06. 13:00 15.2° C bewölkt
Do, 04.06. 12:00 15.4° C wolkig
Do, 04.06. 11:00 15.4° C leicht bewölkt
Do, 04.06. 10:00 13.6° C wolkenlos
Do, 04.06. 9:00 13.5° C leicht bewölkt
Do, 04.06. 8:00 13.2° C wolkenlos
Ortszeit Relative Feuchte Sichtweite
Do, 04.06. 8:00 71% 35 km
Do, 04.06. 2:00 76% 50 km
Mi, 03.06. 20:00 82% 40 km
Mi, 03.06. 14:00 60% 30 km
Mi, 03.06. 8:00 66% 40 km
Mi, 03.06. 2:00 71% 50 km
Di, 02.06. 20:00 53% 40 km
Di, 02.06. 14:00 42% 29 km
Ortszeit Relative Feuchte Sichtweite
Do, 04.06. 13:00 74% 30 km
Do, 04.06. 12:00 69% 27 km
Do, 04.06. 11:00 70% 30 km
Do, 04.06. 10:00 74% 35 km
Do, 04.06. 9:00 73% 35 km
Do, 04.06. 8:00 71% 35 km
Ortszeit Niederschlagsmenge Niederschlagsart
Do, 04.06. 8:00 0.0 l/m2 in 3 Std. -
Do, 04.06. 2:00 0.0 l/m2 in 3 Std. -
Mi, 03.06. 20:00 0.0 l/m2 in 3 Std. -
Mi, 03.06. 14:00 keine Meldung -
Mi, 03.06. 8:00 0.0 l/m2 in 3 Std. -
Mi, 03.06. 2:00 keine Meldung -
Di, 02.06. 20:00 0.0 l/m2 in 3 Std. -
Di, 02.06. 14:00 0.0 l/m2 in 3 Std. -
Ortszeit Niederschlagsmenge Niederschlagsart
Do, 04.06. 13:00 keine Meldung -
Do, 04.06. 12:00 keine Meldung -
Do, 04.06. 11:00 keine Meldung -
Do, 04.06. 10:00 0.0 l/m2 in 1 Std. -
Do, 04.06. 9:00 0.0 l/m2 in 1 Std. -
Do, 04.06. 8:00 0.0 l/m2 in 1 Std. -
Ortszeit Stärke Spitze Richtung
km/h Bft. km/h Grad Sektor
Do, 04.06. 8:00 14 3 - 100° O
Do, 04.06. 2:00 9 2 - 110° O
Mi, 03.06. 20:00 6 1 - 100° O
Mi, 03.06. 14:00 13 3 - 90° O
Mi, 03.06. 8:00 7 2 - 80° O
Mi, 03.06. 2:00 6 1 - 340° N
Di, 02.06. 20:00 6 1 - 150° SO
Di, 02.06. 14:00 6 1 - 210° SW
Ortszeit Stärke Spitze Richtung
km/h Bft. km/h Grad Sektor
Do, 04.06. 13:00 19 3 - 100° O
Do, 04.06. 12:00 20 4 39 120° SO
Do, 04.06. 11:00 20 4 35 100° O
Do, 04.06. 10:00 18 3 - 110° O
Do, 04.06. 9:00 18 3 - 110° O
Do, 04.06. 8:00 14 3 - 100° O
Ortszeit Untergrenze Bedeckung Gattung
total tief tief mittel hoch
Do, 04.06. 8:00 - 0/8 0/8 - - -
Do, 04.06. 2:00 5400 m 1/8 1/8 - - -
Mi, 03.06. 20:00 - 0/8 0/8 - - -
Mi, 03.06. 14:00 - 0/8 0/8 - - -
Mi, 03.06. 8:00 - 0/8 0/8 - - -
Mi, 03.06. 2:00 - 0/8 0/8 - - -
Di, 02.06. 20:00 2400 m 7/8 7/8 - - -
Di, 02.06. 14:00 2100 m 1/8 1/8 - - -
Ortszeit Bedeckungsgrad in Achtel und Wolkenuntergrenze
Do, 04.06. 13:00 7(2400m)
Do, 04.06. 12:00 3(2100m) 4(2100m) 6(2700m)
Do, 04.06. 11:00 1(660m) 2(4500m)
Do, 04.06. 10:00 keine Wolken
Do, 04.06. 9:00 3(2700m)
Do, 04.06. 8:00 keine Wolken
Ortszeit Luftdruck NN (hPa) Tendenz (hPa in 3 Std.)
Do, 04.06. 8:00 999 - 1,9
Do, 04.06. 2:00 1003 - 1,4
Mi, 03.06. 20:00 1005 - 0,8
Mi, 03.06. 14:00 1007 - 1,2
Mi, 03.06. 8:00 1009 - 1,0
Mi, 03.06. 2:00 1012 - 1,7
Di, 02.06. 20:00 1014 - 1,8
Di, 02.06. 14:00 1018 - 2,1
Ortszeit Luftdruck NN (hPa) Tendenz (hPa in 3 Std.)
Do, 04.06. 13:00 996 - 1,6
Do, 04.06. 12:00 997 - 1,6
Do, 04.06. 11:00 997 - 1,6
Do, 04.06. 10:00 998 - 1,6
Do, 04.06. 9:00 998 - 1,8
Do, 04.06. 8:00 999 - 1,9
Ortszeit Schneehöhe (cm)
Do, 04.06. 8:00 -
Do, 04.06. 2:00 -
Mi, 03.06. 20:00 -
Mi, 03.06. 14:00 -
Mi, 03.06. 8:00 -
Mi, 03.06. 2:00 -
Di, 02.06. 20:00 -
Di, 02.06. 14:00 -
Ortszeit Schneehöhe (cm)
Do, 04.06. 13:00 -
Do, 04.06. 12:00 -
Do, 04.06. 11:00 -
Do, 04.06. 10:00 -
Do, 04.06. 9:00 -
Do, 04.06. 8:00 -
Link zu dieser Seite / Seite empfehlen

Das Wetter in ...